Location: Darlington Observatory
(36.4817°N, 105.8156°W)
Time: 00:33:19
(UTC-06:00)

NOSS 3-3 (A) - Visible Passes

Search period start: 01 July 2015 00:00
Search period end: 11 July 2015 00:00
Orbit: 955 x 1258 km, 63.4° (Epoch: 27 June)

Date Brightness Start Highest point End Pass type
(mag) Time Alt. Az. Time Alt. Az. Time Alt. Az.
01 Jul 7.2 04:49:48 10° N 04:53:48 16° NNE 04:58:12 10° ENE visible
01 Jul 4.5 22:19:47 10° SW 22:26:02 62° NW 22:32:40 10° NNE visible
02 Jul 6.8 00:15:10 10° WNW 00:18:36 14° NNW 00:21:52 10° N visible
02 Jul 7.5 04:06:36 10° NNE 04:08:15 11° NNE 04:10:15 10° NE visible
02 Jul 4.0 21:35:04 10° SSW 21:41:21 83° ESE 21:48:02 10° NNE visible
02 Jul 6.5 23:28:28 10° W 23:33:14 20° NW 23:38:00 10° N visible
03 Jul 6.8 05:10:21 10° NNW 05:16:25 28° NE 05:22:55 10° E visible
03 Jul 4.2 20:50:50 10° S 20:56:49 49° ESE 21:03:09 10° NE visible
03 Jul 6.0 22:42:27 10° WSW 22:48:02 30° NW 22:53:50 10° NNE visible
04 Jul 7.1 04:26:14 10° N 04:31:09 19° NE 04:36:30 10° E visible
04 Jul 5.2 21:56:58 10° SW 22:03:03 46° NW 22:09:28 10° NNE visible
04 Jul 7.2 23:53:57 10° NW 23:56:01 11° NNW 23:57:52 10° N visible
05 Jul 7.4 03:42:26 10° N 03:45:43 14° NNE 03:49:23 10° ENE visible
05 Jul 4.3 21:11:57 10° SW 21:18:15 74° WNW 21:24:57 10° NNE visible
05 Jul 7.0 23:06:32 10° WNW 23:10:33 16° NNW 23:14:29 10° N visible
06 Jul 6.3 04:47:00 10° NNW 04:53:36 35° NE 05:00:36 10° ESE visible
06 Jul 6.5 22:20:08 10° W 22:25:14 24° NW 22:30:28 10° N visible
07 Jul 6.8 04:02:47 10° N 04:08:27 24° NE 04:14:33 10° E visible
07 Jul 5.8 21:34:19 10° WSW 21:40:08 35° NW 21:46:12 10° NNE visible
08 Jul 7.2 03:18:45 10° N 03:23:07 17° NE 03:27:54 10° ENE visible
08 Jul 5.0 05:08:11 10° NNW 05:15:36 67° NE 05:23:23 10° SE visible
08 Jul 5.0 20:49:01 10° SW 20:55:13 55° NW 21:01:47 10° NNE visible
08 Jul 7.3 22:44:55 10° WNW 22:47:55 13° NNW 22:50:45 10° N visible
09 Jul 7.4 02:35:14 10° N 02:37:37 12° NNE 02:40:21 10° NE visible
09 Jul 5.7 04:23:43 10° NNW 04:30:43 44° NE 04:38:07 10° ESE visible
09 Jul 6.9 21:58:01 10° W 22:02:31 19° NW 22:07:00 10° N visible
10 Jul 6.3 03:39:23 10° NNW 03:45:41 30° NE 03:52:23 10° ESE visible
10 Jul 6.4 21:11:52 10° W 21:17:17 27° NW 21:22:53 10° NNE visible
